Date String (YYYY-MM-DD hh:mm:ss) UTC,Instrument flags,Ambient pressure (hPa),Sample flow (lpm),Bypass flow (lpm),Sample temperature (°C),Ambient temperature (°C),ASC tube jacket temperature (°C),LED temperature (°C),Box temperature (°C),Sample RH (%),Span deviation,Mass concentration (μg/m³),Mass concentration (μg/m³),Mass concentration (μg/m³)
DateTimeUTC,F1_M11,P_M11,Q1_M11,Q2_M11,T1_M11,T2_M11,T3_M11,T4_M11,T5_M11,U1_M11,ZSPAN_M11,X0_M11,X2_M11,X1_M11
2021-12-05 15:00:00,,0817.0,5.01,0.00,24.5,23.6,00.0,33.6,26.3,07.6,0000.0,0013.80,0001.62,0000.39
2021-12-05 15:01:00,,0817.0,4.99,0.00,24.5,23.6,00.0,33.5,26.3,07.7,0000.0,0010.20,0001.25,0000.34
2021-12-05 15:02:00,,0817.0,5.01,0.00,24.5,23.6,00.0,33.5,26.3,07.6,0000.0,0009.26,0001.15,0000.34
2021-12-05 15:03:00,,0817.1,5.00,0.00,24.5,23.6,00.0,33.5,26.3,07.6,0000.0,0009.43,0001.17,0000.33
2021-12-05 15:04:00,,0817.3,5.00,0.00,24.5,23.6,00.0,33.5,26.3,07.6,0000.0,0009.26,0001.18,0000.33
2021-12-05 15:05:00,,0817.2,5.01,0.00,24.5,23.6,00.0,33.5,26.3,07.6,0000.0,0009.42,0001.20,0000.33
2021-12-05 15:06:00,,0817.0,4.99,0.00,24.5,23.6,00.0,33.5,26.3,07.7,0000.0,0009.12,0001.16,0000.32
2021-12-05 15:07:00,,0816.9,5.00,0.00,24.5,23.6,00.0,33.5,26.3,07.7,0000.0,0008.17,0001.12,0000.31
2021-12-05 15:08:00,,0816.8,5.00,0.00,24.5,23.6,00.0,33.5,26.3,07.6,0000.0,0007.24,0001.10,0000.31
2021-12-05 15:09:00,,0816.8,4.99,0.00,24.5,23.5,00.0,33.5,26.3,07.7,0000.0,0010.19,0001.22,0000.33
2021-12-05 15:10:00,,0817.0,5.00,0.00,24.5,23.5,00.0,33.5,26.3,07.7,0000.0,0012.64,0001.39,0000.35
2021-12-05 15:11:00,,0816.7,5.00,0.00,24.5,23.6,00.0,33.5,26.3,07.7,0000.0,0012.68,0001.44,0000.36
2021-12-05 15:12:00,,0816.8,5.02,0.00,24.5,23.5,00.0,33.5,26.3,07.7,0000.0,0013.79,0001.63,0000.38
2021-12-05 15:13:00,,0816.8,4.99,0.00,24.5,23.5,00.0,33.5,26.3,07.6,0000.0,0014.24,0001.65,0000.39
2021-12-05 15:14:00,,0816.8,5.00,0.00,24.5,23.5,00.0,33.5,26.2,07.6,0000.0,0014.17,0001.72,0000.40
2021-12-05 15:15:00,,0816.7,5.01,0.00,24.5,23.6,00.0,33.5,26.2,07.7,0000.0,0014.76,0001.82,0000.42
2021-12-05 15:16:00,,0817.2,4.99,0.00,24.5,23.6,00.0,33.5,26.3,07.5,0000.0,0015.73,0002.03,0000.44
2021-12-05 15:17:00,,0817.1,5.00,0.00,24.5,23.6,00.0,33.5,26.3,07.5,0000.0,0016.09,0002.07,0000.45
2021-12-05 15:18:00,,0816.9,5.01,0.00,24.5,23.6,00.0,33.5,26.3,07.6,0000.0,0015.98,0002.01,0000.45
2021-12-05 15:19:00,,0816.5,5.00,0.00,24.5,23.6,00.0,33.5,26.3,07.6,0000.0,0016.00,0002.07,0000.46
2021-12-05 15:20:00,,0816.9,5.01,0.00,24.5,23.6,00.0,33.5,26.3,07.7,0000.0,0014.82,0002.24,0000.48
2021-12-05 15:21:00,,0816.7,4.99,0.00,24.5,23.5,00.0,33.5,26.3,07.6,0000.0,0012.92,0002.25,0000.48
2021-12-05 15:22:00,,0816.7,5.00,0.00,24.5,23.5,00.0,33.5,26.3,07.6,0000.0,0015.11,0002.41,0000.49
2021-12-05 15:23:00,,0816.8,5.00,0.00,24.4,23.5,00.0,33.5,26.3,07.6,0000.0,0019.29,0002.51,0000.50
2021-12-05 15:24:00,,0816.6,5.00,0.00,24.4,23.5,00.0,33.5,26.2,07.6,0000.0,0018.35,0002.53,0000.49
2021-12-05 15:25:00,,0816.5,5.02,0.00,24.4,23.5,00.0,33.5,26.2,07.7,0000.0,0019.24,0002.55,0000.49
2021-12-05 15:26:00,,0816.7,5.00,0.00,24.4,23.4,00.0,33.5,26.2,07.8,0000.0,0018.81,0002.55,0000.49
2021-12-05 15:27:00,,0816.8,5.01,0.00,24.4,23.4,00.0,33.5,26.2,07.7,0000.0,0017.34,0002.27,0000.46
2021-12-05 15:28:00,,0817.0,4.98,0.00,24.4,23.4,00.0,33.5,26.2,07.8,0000.0,0016.93,0002.15,0000.44
2021-12-05 15:29:00,,0816.7,5.01,0.00,24.4,23.5,00.0,33.5,26.2,07.7,0000.0,0016.97,0002.17,0000.45
2021-12-05 15:30:00,,0816.8,5.00,0.00,24.4,23.5,00.0,33.5,26.2,07.4,0000.0,0016.81,0002.10,0000.44
2021-12-05 15:31:00,,0817.0,5.00,0.00,24.4,23.5,00.0,33.5,26.2,07.5,0000.0,0016.27,0001.84,0000.42
2021-12-05 15:32:00,,0816.9,4.99,0.00,24.4,23.5,00.0,33.4,26.2,07.5,0000.0,0014.89,0001.64,0000.40
2021-12-05 15:33:00,,0816.9,5.01,0.00,24.4,23.5,00.0,33.4,26.3,07.5,0000.0,0012.63,0001.39,0000.38
2021-12-05 15:34:00,,0816.6,4.99,0.00,24.4,23.5,00.0,33.4,26.3,07.5,0000.0,0006.90,0001.04,0000.36
2021-12-05 15:35:00,,0816.8,5.00,0.00,24.4,23.5,00.0,33.4,26.3,07.5,0000.0,0006.16,0000.94,0000.35
2021-12-05 15:36:00,,0816.7,5.01,0.00,24.4,23.5,00.0,33.4,26.3,07.5,0000.0,0004.37,0000.93,0000.34
2021-12-05 15:37:00,,0816.8,5.00,0.00,24.4,23.5,00.0,33.4,26.2,07.4,0000.0,0008.26,0001.02,0000.34
2021-12-05 15:38:00,,0816.9,5.00,0.00,24.4,23.5,00.0,33.4,26.2,07.4,0000.0,0009.54,0001.02,0000.34
2021-12-05 15:39:00,,0816.8,4.99,0.00,24.4,23.5,00.0,33.4,26.3,07.4,0000.0,0009.57,0001.05,0000.35
2021-12-05 15:40:00,,0816.9,5.00,0.00,24.4,23.5,00.0,33.4,26.3,07.5,0000.0,0009.54,0001.04,0000.36
2021-12-05 15:41:00,,0817.0,5.00,0.00,24.4,23.5,00.0,33.4,26.2,07.5,0000.0,0009.55,0001.05,0000.36
2021-12-05 15:42:00,,0817.1,5.01,0.00,24.4,23.5,00.0,33.4,26.3,07.4,0000.0,0009.95,0001.06,0000.36
2021-12-05 15:43:00,,0817.0,4.98,0.00,24.4,23.5,00.0,33.4,26.2,07.2,0000.0,0010.09,0001.05,0000.35
2021-12-05 15:44:00,,0816.8,5.01,0.00,24.4,23.5,00.0,33.4,26.2,07.2,0000.0,0009.96,0001.06,0000.35
2021-12-05 15:45:00,,0816.9,4.99,0.00,24.4,23.6,00.0,33.4,26.2,07.4,0000.0,0010.07,0001.10,0000.35
2021-12-05 15:46:00,,0817.1,5.00,0.00,24.4,23.6,00.0,33.4,26.2,07.5,0000.0,0010.13,0001.12,0000.35
2021-12-05 15:47:00,,0816.5,5.01,0.00,24.4,23.6,00.0,33.4,26.2,07.4,0000.0,0010.55,0001.06,0000.35
2021-12-05 15:48:00,,0816.7,5.00,0.00,24.4,23.5,00.0,33.4,26.2,07.2,0000.0,0009.34,0000.96,0000.34
2021-12-05 15:49:00,,0816.8,5.00,0.00,24.4,23.5,00.0,33.4,26.2,07.2,0000.0,0008.43,0001.00,0000.35
2021-12-05 15:50:00,,0816.8,4.99,0.00,24.4,23.5,00.0,33.4,26.2,07.2,0000.0,0008.50,0001.02,0000.35
2021-12-05 15:51:00,,0816.8,5.01,0.00,24.4,23.5,00.0,33.4,26.2,07.3,0000.0,0008.85,0001.04,0000.34
2021-12-05 15:52:00,,0817.0,5.01,0.00,24.4,23.5,00.0,33.4,26.2,07.3,0000.0,0009.41,0001.06,0000.35
2021-12-05 15:53:00,,0817.0,5.00,0.00,24.4,23.5,00.0,33.4,26.2,07.3,0000.0,0009.32,0001.04,0000.34
2021-12-05 15:54:00,,0816.9,5.00,0.00,24.4,23.5,00.0,33.4,26.2,06.9,0000.0,0008.87,0001.07,0000.35
2021-12-05 15:55:00,,0816.9,4.99,0.00,24.4,23.5,00.0,33.4,26.2,06.8,0000.0,0008.73,0001.06,0000.35
2021-12-05 15:56:00,,0816.9,5.00,0.00,24.4,23.6,00.0,33.4,26.2,07.0,0000.0,0008.72,0001.04,0000.35
2021-12-05 15:57:00,,0817.1,4.99,0.00,24.4,23.6,00.0,33.4,26.2,07.1,0000.0,0008.75,0001.03,0000.36
2021-12-05 15:58:00,,0817.0,5.00,0.00,24.4,23.6,00.0,33.4,26.2,07.0,0000.0,0008.76,0001.03,0000.36
2021-12-05 15:59:00,,0817.2,5.00,0.00,24.4,23.6,00.0,33.4,26.1,07.2,0000.0,0006.96,0000.95,0000.36
